Location: Newark
(34.1333°N, 7.9667°W)
Time: 09:25:38
(UTC+00:00)

Transit 2A - Pass Details

Date: 21 June 2021
Orbit: 598 x 960 km, 66.7° (Epoch: 29 July)

Event Time Altitude Azimuth Distance (km) Brightness Sun altitude
Rises 16:28:07 0° 218° (SW) 2,883 9.4 38.2°
Reaches altitude 10° 16:30:27 10° 224° (SW) 1,955 8.7 37.8°
Maximum altitude 16:34:39 48° 299° (WNW) 789 7.8 36.9°
Drops below altitude 10° 16:38:51 10° 14° (NNE) 1,946 8.1 36.0°
Sets 16:41:11 0° 21° (NNE) 2,869 8.9 35.6°
